EW5807 Weather Reports


Display with metric or nautical units.
time (UTC)temp
F
wind
direction
speed
MPH
gust
MPH
rain 1hr
in
rain 24hr
in
rain mn
in
humidity
%
barometer
mb
20260902083059 61 219 8.0 12.0 0.00 0.00 0.00 19 1004.4
20260902081603 63 213 6.0 11.0 0.00 0.00 0.00 18 1004.2
20260902080050 64 198 5.0 13.0 0.00 0.00 0.00 17 1004.2
20260902074543 65 163 5.0 12.0 0.00 0.00 0.00 17 1004.1
20260902073037 64 153 5.0 13.0 0.00 0.00 0.00 17 1003.8
20260902071506 62 218 5.0 8.0 0.00 0.00 0.00 19 1003.9
20260902070007 60 163 4.0 9.0 0.00 0.00 0.00 21 1003.9
20260902064501 61 217 8.0 12.0 0.00 0.00 0.00 21 1003.9
20260902063132 61 219 8.0 12.0 0.00 0.00 0.00 20 1003.6
20260902061558 62 214 5.0 11.0 0.00 0.00 0.00 20 1003.6
20260902060126 62 191 5.0 11.0 0.00 0.00 0.00 20 1003.5
20260902054525 62 213 8.0 14.0 0.00 0.00 0.00 19 1003.5
20260902053021 63 205 8.0 14.0 0.00 0.00 0.00 19 1003.4
20260902051518 64 217 8.0 12.0 0.00 0.00 0.00 18 1003.4
20260902050021 64 162 5.0 11.0 0.00 0.00 0.00 18 1003.4
20260902044533 62 201 6.0 11.0 0.00 0.00 0.00 19 1003.2
20260902043012 60 210 4.0 7.0 0.00 0.00 0.00 20 1003.2
20260902041541 60 146 0.0 2.0 0.00 0.00 0.00 20 1003.2
20260902040037 62 207 0.0 5.0 0.00 0.00 0.00 19 1003.0
20260902034501 64 203 2.0 6.0 0.00 0.00 0.00 18 1002.8
20260902033111 65 198 4.0 8.0 0.00 0.00 0.00 17 1002.7
20260902031554 67 219 3.0 8.0 0.00 0.00 0.00 16 1002.5
20260902030054 64 231 3.0 6.0 0.00 0.00 0.00 17 1002.3
20260902024554 65 160 0.0 4.0 0.00 0.00 0.00 16 1002.2
20260902023047 68 161 2.0 5.0 0.00 0.00 0.00 14 1002.0
20260902021544 70 158 3.0 5.0 0.00 0.00 0.00 13 1001.9
20260902020039 73 210 3.0 7.0 0.00 0.00 0.00 11 1001.8
20260902014544 75 224 4.0 11.0 0.00 0.00 0.00 10 1001.8
20260902013025 78 226 7.0 14.0 0.00 0.00 0.00 9 1001.9
20260902011519 79 210 5.0 12.0 0.00 0.00 0.00 10 1002.0
20260902010020 81 188 7.0 18.0 0.00 0.00 0.00 9 1002.0
20260902004518 81 195 6.0 18.0 0.00 0.00 0.00 9 1002.1
20260902003013 81 161 8.0 17.0 0.00 0.00 0.00 9 1002.1
20260902001511 81 229 10.0 18.0 0.00 0.00 0.00 9 1002.1
20260902000005 81 231 8.0 17.0 0.00 0.00 0.00 9 1002.5
20260901234509 81 176 11.0 20.0 0.00 0.00 0.00 9 1002.6
20260901233002 81 198 10.0 22.0 0.00 0.00 0.00 10 1002.7
20260901231600 81 179 11.0 25.0 0.00 0.00 0.00 10 1002.8
20260901230057 82 186 8.0 16.0 0.00 0.00 0.00 10 1003.0
20260901224555 82 193 6.0 14.0 0.00 0.00 0.00 11 1003.1
20260901223100 81 229 13.0 21.0 0.00 0.00 0.00 12 1003.2
20260901221610 81 211 5.0 18.0 0.00 0.00 0.00 14 1003.3
20260901220047 80 231 14.0 20.0 0.00 0.00 0.00 12 1003.4
20260901214547 81 207 11.0 19.0 0.00 0.00 0.00 14 1003.5
20260901213043 80 205 10.0 20.0 0.00 0.00 0.00 15 1003.7
20260901211542 80 134 12.0 24.0 0.00 0.00 0.00 15 1004.0
20260901210016 80 229 13.0 26.0 0.00 0.00 0.00 16 1004.0
20260901204509 80 237 16.0 25.0 0.00 0.00 0.00 17 1004.2
20260901203004 79 212 14.0 24.0 0.00 0.00 0.00 18 1004.3
20260901201511 78 194 9.0 21.0 0.00 0.00 0.00 21 1004.5
20260901200001 78 120 14.0 27.0 0.00 0.00 0.00 21 1004.8
20260901194600 78 236 13.0 21.0 0.00 0.00 0.00 21 1005.0
20260901193029 78 222 10.0 26.0 0.00 0.00 0.00 20 1005.0
20260901191526 77 215 13.0 22.0 0.00 0.00 0.00 22 1005.3
20260901190055 77 164 12.0 25.0 0.00 0.00 0.00 23 1005.7
20260901184602 76 240 11.0 27.0 0.00 0.00 0.00 22 1005.9
20260901183056 76 252 12.0 24.0 0.00 0.00 0.00 22 1006.1
20260901181553 76 198 16.0 27.0 0.00 0.00 0.00 23 1006.2
20260901180051 75 188 11.0 23.0 0.00 0.00 0.00 24 1006.2
20260901174550 76 184 15.0 25.0 0.00 0.00 0.00 23 1006.5
20260901173047 76 214 15.0 23.0 0.00 0.00 0.00 23 1006.6
20260901171551 75 227 16.0 28.0 0.00 0.00 0.00 23 1006.4
20260901170045 74 158 14.0 23.0 0.00 0.00 0.00 27 1006.4
20260901164544 72 224 8.0 15.0 0.00 0.00 0.00 32 1006.3
20260901163046 71 202 11.0 19.0 0.00 0.00 0.00 34 1006.5
20260901161546 71 210 12.0 18.0 0.00 0.00 0.00 37 1006.5
20260901160051 68 195 5.0 12.0 0.00 0.00 0.00 42 1006.9
20260901154541 67 184 7.0 14.0 0.00 0.00 0.00 43 1007.1
20260901153039 66 187 4.0 10.0 0.00 0.00 0.00 46 1007.4
20260901151536 63 206 5.0 11.0 0.00 0.00 0.00 48 1007.6
20260901150036 61 289 1.0 3.0 0.00 0.00 0.00 50 1007.8
20260901144538 60 198 2.0 6.0 0.00 0.00 0.00 50 1007.8
20260901143004 59 213 4.0 7.0 0.00 0.00 0.00 52 1007.9
20260901141505 56 212 2.0 5.0 0.00 0.00 0.00 56 1007.8
20260901134620 50 49 1.0 4.0 0.00 0.00 0.00 64 1008.0
20260901133057 50 82 0.0 0.0 0.00 0.00 0.00 66 1007.9
20260901131556 49 86 0.0 1.0 0.00 0.00 0.00 63 1007.9
20260901130030 50 157 0.0 0.0 0.00 0.00 0.00 64 1007.8
20260901124526 51 134 0.0 0.0 0.00 0.00 0.00 62 1007.6
20260901123050 52 66 0.0 0.0 0.00 0.00 0.00 60 1007.7
20260901121555 53 69 1.0 2.0 0.00 0.00 0.00 56 1007.7
20260901120058 54 72 2.0 3.0 0.00 0.00 0.00 57 1007.7
20260901114546 52 67 0.0 3.0 0.00 0.00 0.00 59 1007.6
20260901113108 51 79 0.0 2.0 0.00 0.00 0.00 61 1007.7
20260901111543 48 67 0.0 2.0 0.00 0.00 0.00 62 1007.8
20260901110052 50 58 0.0 1.0 0.00 0.00 0.00 60 1007.7
20260901104533 52 81 0.0 1.0 0.00 0.00 0.00 58 1007.4
20260901103028 52 148 0.0 3.0 0.00 0.00 0.00 57 1007.4
20260901101538 53 147 0.0 0.0 0.00 0.00 0.00 57 1007.6
20260901100021 54 97 0.0 1.0 0.00 0.00 0.00 54 1007.6
20260901094519 55 70 0.0 2.0 0.00 0.00 0.00 52 1007.3
20260901093023 56 49 0.0 2.0 0.00 0.00 0.00 50 1007.3
20260901091518 58 55 0.0 3.0 0.00 0.00 0.00 48 1007.3
20260901090016 55 54 0.0 3.0 0.00 0.00 0.00 52 1007.4
20260901084547 55 53 0.0 2.0 0.00 0.00 0.00 52 1007.3